COSMOS 2251 DEB

Satellite information

Favourite Embed

Satellite Type and Status

DEBRISIN ORBIT

Key statistics

Satellite COSMOS 2251 DEB at a glance.

Uptime

11816

Days in orbit

Revolutions

≈ 14.5

Per day

Orbit

LEO

Low Earth Orbit

Inclination

74.0

Latest

Satellite identification and parameters

Extended collection of information and parameters for COSMOS 2251 DEB.

Object identification

Identified? True

Debris? True

Object name: COSMOS 2251 DEB

International designator: 1993-036AWP

Object number (NORAD): 35997

Object ID (CCSDS): 35997

Country: COMMONWEALTH OF INDEPENDENT STATES (CIS)

Current information (Y/N): Y

RCS size: SMALL

Orbital parameters

Period: 99.25 minutes

Inclination: 74.0428 deg

SMA: 7100.908 km

Apoapsis: 733.553 km

Periapsis: 711.992 km

RAAN: 287.761 deg

Eccentricy: 0.00151823

Argument of periapsis: 8.1147 deg

Mean anomaly: 352.0257 deg

Mean motion: 14.50881612 rev/day

Mean motion (dot): 0.00005221 rev/day2

B* drag term: 0.0013272503 1/REarth

Two-line elements (TLE)

Creation date: Oct. 20, 2025, 10:26 a.m.

Reference frame: TEME

Reference center: EARTH

Epoch: Oct. 20, 2025, 7:20 a.m. UTC

TLE line 0: 0 COSMOS 2251 DEB

TLE line 1: 1 35997U 93036AWP 25293.30613155 .00005221 00000-0 13273-2 0 9997

TLE line 2: 2 35997 74.0428 287.7610 0015182 8.1147 352.0257 14.50881612701096

Live tracking on map

Real-time ground track for satellite COSMOS 2251 DEB.

In-orbit conjunctions

A list of the most updated potential collisions computed for object COSMOS 2251 DEB.

Target Orbit TCA Probability of collision Miss distance Type
FENGYUN 1C DEB SSO 2024-11-14 23:19:29 0.01254542 3.0 (m) DEBRIS
SL-8 R/B LEO 2024-07-11 11:34:35 0.000193698 585.0 (m) ROCKET BODY

Associated space launch

Military communications satellite. Destroyed in a collision with Iridium 33.

COSMOS 2251 DEB was lifted into orbit during the mission ‘Kosmos-3M | Strela-2M 51’, on board a Kosmos-3M space rocket.

The launch took place on June 16, 1993, 4:17 a.m. from 132/1 (132L).

For more information about the launch, click the button.

Launch to space Kosmos-3M | Strela-2M 51
Kosmos-3M | Strela-2M 51

Agency: N/A

Status: Launch Successful

Launch date: June 16, 1993, 4:17 a.m. UTC

Rocket: Kosmos-3M

Launch pad: 132/1 (132L)

Location: Plesetsk Cosmodrome, Russian Federation

...

Latest news about this satellite

There are no fresh news available about this satellite. Check back as we update our databases every day.


Newsletter sign-up

Weekly statistics, charts and insights to help you stay on top of the space industry.